Weather History for Linden, NJ

Change the Weather History Date:

Sunday, July 7, 2013

  Actual Average (KEWR) Record (KEWR)
Temperature  
Mean Temperature 85 °F 77 °F  
Max Temperature 91 °F 86 °F 103 °F (1993)
Min Temperature 79 °F 68 °F 57 °F (1940)
Degree Days  
Heating Degree Days 0 0  
Month to date heating degree days 0  
Since 1 June heating degree days 17  
Since 1 July heating degree days 0  
Cooling Degree Days 20 12  
Month to date cooling degree days 83  
Year to date cooling degree days 398  
Since 1 June cooling degree days 322  
Growing Degree Days 35 (Base 50)    
Moisture  
Dew Point 71 °F    
Average Humidity 65    
Maximum Humidity 77    
Minimum Humidity 50    
Precipitation  
Precipitation 0.00 in 0.14 in 3.29 in (1984)
Month to date precipitation 0.91  
Year to date precipitation 23.82  
Snow  
Snow 0.00 in 0.00 in 0.00 in (2002)
Month to date snowfall 0.0  
Since 1 July snowfall 0.0  
Snow Depth -    
Sea Level Pressure  
Sea Level Pressure 30.03 in    
Wind  
Wind Speed 5 mph (WSW)    
Max Wind Speed 9 mph    
Max Gust Speed 16 mph    
Visibility 10 miles    
Events      
T = Trace of Precipitation, MM = Missing Value Source: NWS Daily Summary

Daily Weather History Graph

Daily Weather History Graph

Search for Another Location

Airport:

Trip Planner

Search our weather history database for the weather conditions in past years. The results will help you decide how hot, cold, wet, or windy it might be!

Date:

Astronomy

Jul. 07, 2013 Rise Set
Actual Time 5:33 AM EDT 8:30 PM EDT
Civil Twilight 5:00 AM EDT 9:03 PM EDT
Nautical Twilight 4:18 AM EDT 9:44 PM EDT
Astronomical Twilight 3:30 AM EDT 10:32 PM EDT
Moon 5:07 AM EDT (7/7) 7:52 PM EDT (7/7)
Length of Visible Light 16h 02m
Length of Day
14h 56m
Waning Crescent, 0% of the Moon is Illuminated
Jul 7
Waning Crescent
Jul 8
New
Jul 15
First Quarter
Jul 22
Full
Jul 29
Last Quarter

Hourly Weather History & Observations

Time (EDT) Temp. Heat Index Dew Point Humidity Pressure Visibility Wind Dir Wind Speed Gust Speed Precip Events Conditions
12:15 AM 86.2 °F 92.6 °F 72.1 °F 63% 30.07 in 10.0 mi WSW 4.6 mph - N/A   Clear
12:35 AM 85.6 °F 92.2 °F 72.5 °F 65% 30.07 in 10.0 mi WSW 3.5 mph - N/A   Clear
12:55 AM 85.1 °F 91.5 °F 72.5 °F 66% 30.07 in 10.0 mi WSW 6.9 mph - N/A   Clear
1:15 AM 84.6 °F 90.7 °F 72.5 °F 67% 30.06 in 10.0 mi WSW 5.8 mph - N/A   Clear
1:35 AM 84.2 °F 90.3 °F 72.5 °F 68% 30.06 in 10.0 mi WSW 6.9 mph - N/A   Clear
1:55 AM 84.2 °F 90.3 °F 72.5 °F 68% 30.06 in 10.0 mi West 6.9 mph - N/A   Clear
2:15 AM 83.8 °F 89.5 °F 72.1 °F 68% 30.06 in 10.0 mi West 6.9 mph - N/A   Clear
2:35 AM 83.5 °F 89.1 °F 72.1 °F 69% 30.06 in 10.0 mi West 6.9 mph - N/A   Clear
2:55 AM 83.1 °F 88.4 °F 72.1 °F 69% 30.05 in 10.0 mi WSW 5.8 mph - N/A   Clear
3:15 AM 82.6 °F 87.8 °F 72.3 °F 71% 30.05 in 10.0 mi West 6.9 mph - N/A   Clear
3:35 AM 82.4 °F 87.4 °F 72.1 °F 71% 30.05 in 10.0 mi West 4.6 mph - N/A   Clear
3:55 AM 81.9 °F 86.6 °F 72.1 °F 72% 30.05 in 10.0 mi WSW 3.5 mph - N/A   Clear
4:15 AM 81.5 °F 86.3 °F 72.5 °F 74% 30.05 in 10.0 mi WSW 3.5 mph - N/A   Clear
4:35 AM 81.1 °F 85.6 °F 72.1 °F 74% 30.04 in 10.0 mi WSW 3.5 mph - N/A   Clear
4:55 AM 80.8 °F 84.9 °F 72.0 °F 74% 30.05 in 10.0 mi WSW 4.6 mph - N/A   Clear
5:15 AM 80.6 °F 84.7 °F 72.0 °F 75% 30.05 in 10.0 mi WSW 3.5 mph - N/A   Clear
5:35 AM 80.2 °F 84.2 °F 72.0 °F 76% 30.05 in 10.0 mi Calm Calm - N/A   Clear
5:55 AM 79.7 °F - 71.8 °F 77% 30.05 in 10.0 mi Calm Calm - N/A   Clear
6:15 AM 80.6 °F 84.6 °F 71.6 °F 74% 30.05 in 10.0 mi Calm Calm - N/A   Clear
6:35 AM 80.8 °F 84.7 °F 71.4 °F 73% 30.05 in 10.0 mi Calm Calm - N/A   Clear
6:55 AM 81.5 °F 85.5 °F 71.1 °F 70% 30.05 in 10.0 mi WSW 6.9 mph - N/A   Clear
7:15 AM 81.5 °F 85.5 °F 71.1 °F 70% 30.06 in 10.0 mi WSW 9.2 mph - N/A   Clear
7:35 AM 81.7 °F 85.8 °F 71.1 °F 70% 30.06 in 10.0 mi West 6.9 mph - N/A   Clear
7:55 AM 82.4 °F 86.7 °F 70.9 °F 68% 30.06 in 10.0 mi WSW 6.9 mph - N/A   Clear
8:15 AM 82.8 °F 87.2 °F 70.9 °F 67% 30.06 in 10.0 mi WSW 5.8 mph - N/A   Clear
8:35 AM 83.7 °F 88.6 °F 71.2 °F 66% 30.06 in 10.0 mi West 6.9 mph - N/A   Clear
8:55 AM 84.4 °F 89.4 °F 71.1 °F 64% 30.06 in 10.0 mi SW 4.6 mph - N/A   Clear
9:15 AM 84.7 °F 90.0 °F 71.2 °F 64% 30.05 in 10.0 mi SW 3.5 mph - N/A   Clear
9:35 AM 85.6 °F 91.1 °F 71.4 °F 62% 30.05 in 10.0 mi West 3.5 mph - N/A   Clear
9:55 AM 85.6 °F 91.5 °F 71.8 °F 63% 30.04 in 10.0 mi West 5.8 mph - N/A   Clear
10:15 AM 86.0 °F 91.8 °F 71.4 °F 62% 30.04 in 10.0 mi WSW 5.8 mph - N/A   Clear
10:35 AM 86.9 °F 92.9 °F 71.6 °F 60% 30.04 in 10.0 mi WSW 5.8 mph - N/A   Clear
10:55 AM 87.4 °F 94.0 °F 72.1 °F 60% 30.04 in 10.0 mi West 6.9 mph - N/A   Clear
11:15 AM 88.9 °F 95.1 °F 71.2 °F 56% 30.03 in 10.0 mi Calm Calm - N/A   Clear
11:35 AM 89.4 °F 94.8 °F 70.2 °F 53% 30.02 in 10.0 mi South 4.6 mph - N/A   Clear
11:55 AM 90.3 °F 96.7 °F 71.1 °F 53% 30.02 in 10.0 mi South 8.1 mph - N/A   Clear
12:15 PM 91.6 °F 98.2 °F 71.1 °F 51% 30.02 in 10.0 mi WSW 5.8 mph - N/A   Clear
12:35 PM 91.8 °F 98.6 °F 71.1 °F 51% 30.01 in 10.0 mi West 3.5 mph - N/A   Clear
8:15 PM 90.9 °F 96.2 °F 70.2 °F 50% 29.95 in 10.0 mi WSW 5.8 mph - N/A   Unknown
8:35 PM 90.5 °F 96.5 °F 70.9 °F 52% 29.97 in 10.0 mi West 9.2 mph - N/A   Clear
8:55 PM 90.0 °F 96.9 °F 71.6 °F 55% 29.98 in 10.0 mi West 5.8 mph - N/A   Scattered Clouds
9:15 PM 85.6 °F 88.8 °F 68.0 °F 55% 29.97 in 10.0 mi WNW 5.8 mph - N/A   Scattered Clouds
9:35 PM 82.8 °F 85.1 °F 66.6 °F 58% 29.96 in 10.0 mi NW 4.6 mph - N/A   Clear
9:55 PM 82.8 °F 85.3 °F 67.1 °F 59% 29.97 in 10.0 mi Calm Calm - N/A   Clear
10:15 PM 82.9 °F 85.6 °F 67.3 °F 59% 29.97 in 10.0 mi WSW 3.5 mph - N/A   Clear
10:35 PM 82.8 °F 85.8 °F 68.0 °F 61% 29.97 in 10.0 mi West 6.9 mph - N/A   Clear
10:55 PM 80.8 °F 83.5 °F 68.2 °F 65% 29.99 in 10.0 mi West 9.2 mph 16.1 mph N/A   Clear
11:15 PM 79.9 °F - 68.7 °F 69% 29.99 in 10.0 mi WSW 8.1 mph 16.1 mph N/A   Clear
11:35 PM 79.7 °F - 68.2 °F 68% 29.99 in 10.0 mi West 9.2 mph - N/A   Clear
11:55 PM 79.0 °F - 68.2 °F 69% 29.99 in 10.0 mi West 6.9 mph - N/A   Clear